Amarillo, TX

9:07 AM CST on December 15, 2019 (GMT -0600)
Amarillo International

Weather History for KAMA - June, 2019

Change the Weather History Date:

Tuesday, June 11, 2019

  Actual Average Record
Temperature  
Mean Temperature 72 °F 73 °F  
Max Temperature 88 °F 87 °F 102 °F (2008)
Min Temperature 55 °F 60 °F 43 °F (1955)
Degree Days  
Heating Degree Days 0 0  
Month to date heating degree days 4 5  
Since 1 June heating degree days 4 5  
Since 1 July heating degree days 4106 4176  
Cooling Degree Days 7 9  
Month to date cooling degree days 51 81  
Year to date cooling degree days 113 206  
Since 1 June cooling degree days 51 81  
Growing Degree Days 22 (Base 50)    
Moisture  
Dew Point 50 °F    
Average Humidity 49    
Maximum Humidity 73    
Minimum Humidity 24    
Precipitation  
Precipitation 0.00 in 0.11 in 2.06 in (1951)
Month to date precipitation 2.50 1.27  
Year to date precipitation 10.28 7.63  
Snow  
Snow 0.00 in 0.00 in T in (1951)
Month to date snowfall 0.0 0.0  
Since 1 June snowfall 0.0 0.0  
Since 1 July snowfall 8.1 17.8  
Snow Depth 0.00 in    
Sea Level Pressure  
Sea Level Pressure 29.98 in    
Wind  
Wind Speed 12 mph (South)    
Max Wind Speed 25 mph    
Max Gust Speed 31 mph    
Visibility 10 miles    
Events      
T = Trace of Precipitation, MM = Missing Value Source: NWS Daily Summary

Daily Weather History Graph

Daily Weather History Graph

Search for Another Location

Airport or City:

Astronomy

Jun. 11, 2019 Rise Set
Actual Time 6:31 AM CDT 9:01 PM CDT
Civil Twilight 6:02 AM CDT 9:31 PM CDT
Nautical Twilight 5:25 AM CDT 10:07 PM CDT
Astronomical Twilight 4:44 AM CDT 10:48 PM CDT
Moon 3:17 PM CDT (6/11) 3:00 AM CDT (6/11)
Length of Visible Light 15h 29m
Length of Day
14h 29m
Waxing Gibbous, 66% of the Moon is Illuminated
Jun 11
Waxing Gibbous
Jun 17
Full
Jun 25
Last Quarter
Jul 2
New
Jul 9
First Quarter

Hourly Weather History & Observations

Time (CDT) Temp. Heat Index Dew Point Humidity Pressure Visibility Wind Dir Wind Speed Gust Speed Precip Events Conditions
12:53 AM 57.0 °F - 43.0 °F 59% 30.18 in 10.0 mi SSE 9.2 mph - N/A   Clear
1:53 AM 57.9 °F - 42.1 °F 56% 30.16 in 10.0 mi SSE 9.2 mph - N/A   Clear
2:53 AM 57.9 °F - 42.1 °F 56% 30.13 in 10.0 mi SSE 13.8 mph - N/A   Clear
3:53 AM 59.0 °F - 42.1 °F 53% 30.11 in 10.0 mi South 15.0 mph - N/A   Clear
4:53 AM 57.0 °F - 43.0 °F 59% 30.10 in 10.0 mi South 18.4 mph - N/A   Clear
5:53 AM 55.9 °F - 45.0 °F 67% 30.09 in 10.0 mi South 12.7 mph - N/A   Clear
6:53 AM 55.0 °F - 46.0 °F 72% 30.09 in 10.0 mi South 13.8 mph - N/A   Clear
7:53 AM 57.9 °F - 48.9 °F 72% 30.08 in 10.0 mi South 15.0 mph - N/A   Clear
8:53 AM 62.1 °F - 51.1 °F 67% 30.07 in 10.0 mi South 16.1 mph - N/A   Clear
9:53 AM 68.0 °F - 52.0 °F 56% 30.05 in 10.0 mi SSW 15.0 mph 28.8 mph N/A   Clear
10:53 AM 72.0 °F - 55.9 °F 57% 30.03 in 10.0 mi SSW 23.0 mph 27.6 mph N/A   Clear
11:53 AM 75.0 °F - 57.0 °F 53% 30.01 in 10.0 mi SSW 18.4 mph 26.5 mph N/A   Clear
12:53 PM 78.1 °F - 57.9 °F 50% 29.98 in 10.0 mi SSW 18.4 mph - N/A   Clear
1:53 PM 80.1 °F 80.4 °F 57.0 °F 45% 29.94 in 10.0 mi SSW 15.0 mph 23.0 mph N/A   Clear
2:53 PM 82.9 °F 82.0 °F 55.0 °F 38% 29.90 in 10.0 mi WSW 16.1 mph 26.5 mph N/A   Clear
3:53 PM 84.9 °F - 51.1 °F 31% 29.88 in 10.0 mi SSW 6.9 mph - N/A   Clear
4:53 PM 84.9 °F - 48.0 °F 28% 29.86 in 10.0 mi South 5.8 mph - N/A   Clear
5:53 PM 88.0 °F - 46.9 °F 24% 29.84 in 10.0 mi NW 4.6 mph - N/A   Clear
6:53 PM 87.1 °F - 48.9 °F 27% 29.83 in 10.0 mi Calm Calm - N/A   Clear
7:53 PM 82.0 °F - 51.1 °F 34% 29.84 in 10.0 mi SSE 5.8 mph - N/A   Clear
8:53 PM 78.1 °F - 50.0 °F 37% 29.85 in 10.0 mi East 5.8 mph - N/A   Clear
9:53 PM 72.0 °F - 57.9 °F 61% 29.86 in 10.0 mi ESE 15.0 mph - N/A   Clear
10:53 PM 69.1 °F - 57.9 °F 68% 29.88 in 10.0 mi ESE 11.5 mph - N/A   Clear
11:53 PM 66.9 °F - 57.9 °F 73% 29.91 in 10.0 mi ENE 4.6 mph - N/A   Clear